Hovedside
METAR-TAF:

METAR-TAF

Lufthavner :

Flystasjon

Linköping, Sverige

breddegrad: 58-24N, lengdegrad: 015-31E, høyde over havet: 93 m

Gjeldene værobservasjon

Denne rapporten ble laget for 29 minutter siden, klokken 18:50 UTC
Flau vind
Temperatur 20°C
Luftfuktighet 40%
Trykk 1026 hPa
Sikt 10 km eller mer

METAR: ESCF 201850Z AUTO 00000KT 9999 NCD 20/06 Q1026

Tid: 21:19 (19:19 UTC)


TAF: fraværende

Værobservasjoner og værvarsel for over 4000 flyplasser (METAR- og TAF-rapporter).

Tilgjengelige stasjoner er representert av de røde og gule prikkene på kartet.

Hold musepekeren over prikken for å se navnet på stasjonen.

Klikk så for å se værobservasjoner og -varsler.

For å forandre kartet kan du klikke på den grønne knappen med svart kryss for å zoome inn, på den grønne knappen med strek for å zoome ut, eller på de grønne pilene for å se tilstøtende kart.


METAR-TAF: